sat.trackr.live / text

‹ back to catalog

STARLINK-31778

NORAD 59602 · 2024-080B

PAYLOAD ACTIVE UNKNOWN

§ Identity

Operator
Country
US
Launch date
2024-04-28
Launch site
AFETR
Launch vehicle
Mass (kg)
RCS (m²)

Purposes: comms

External: N2YO · Heavens-Above · Gunter

§ Orbital elements

Epoch: 2026-09-21T17:57:09.664992Z

Period
94.27 min
Inclination
43.0039°
Eccentricity
0.0001223
Mean motion
15.27582308 rev/d
Perigee alt
482.2 km
Apogee alt
483.9 km
Semi-major
6,861.2 km
B*
6.5362e-5
RAAN
7.5230°
Arg perigee
259.8156°
Mean anomaly
100.2558°
Rev number
13,455

§ Raw data

STARLINK-317781 59602U 24080B   26264.74802853  .00001537  00000+0  65362-4 0  99942 59602  43.0039   7.5230 0001223 259.8156 100.2558 15.27582308134554

JSON: /api/v1/satellites/59602 · /tle

For live sub-satellite position, see the globe view (requires WebGL).

§ Visibility from observer

Set your observer location to see the next 7 days of passes ≥ 10°. The values pass through the URL so the page stays shareable.

No JS? Fill the form by hand. The geolocation button needs JavaScript.